Location: Saint-Saturnin-sur-Loire
(47.3950°N, 0.4368°W)
Time: 14:59:48
(UTC+01:00)

ISS - Visible Passes

Search period start: 09 December 2025 00:00
Search period end: 19 December 2025 00:00
Orbit: 416 x 421 km, 51.6° (Epoch: 08 December)

Date Brightness Start Highest point End Pass type
(mag) Time Alt. Az. Time Alt. Az. Time Alt. Az.
10 Dec -0.2 08:00:51 10° SSE 08:02:28 13° SE 08:04:06 10° ESE visible
12 Dec -1.5 08:00:06 10° SSW 08:03:05 30° SE 08:06:05 10° E visible
13 Dec -0.9 07:12:48 10° S 07:15:18 20° SE 07:17:49 10° E visible
14 Dec -0.6 06:26:00 10° SSE 06:27:33 13° SE 06:29:05 10° ESE visible
14 Dec -3.3 08:00:26 10° SW 08:03:48 68° SSE 08:07:09 10° ENE visible
15 Dec -2.6 07:12:38 10° SW 07:15:52 44° SSE 07:19:06 10° ENE visible
16 Dec -1.9 06:26:48 23° S 06:27:58 29° SE 06:30:56 10° E visible
16 Dec -3.7 08:01:14 10° WSW 08:04:35 64° NNW 08:07:56 10° ENE visible
17 Dec -0.7 05:41:25 15° ESE 05:41:25 15° ESE 05:42:34 10° E visible
17 Dec -3.8 07:14:22 21° WSW 07:16:31 86° NNW 07:19:54 10° ENE visible
18 Dec -3.4 06:28:43 63° ESE 06:28:43 63° ESE 06:31:50 10° ENE visible
18 Dec -3.2 08:02:09 10° W 08:05:23 43° N 08:08:38 10° ENE visible
